Find Starlink 34123

NORAD ID: 63891 Int'l Des: 2025-095 Owner: SPXS Country: US Constellation: starlink operational
LEOCIRCULAR

リアルタイム位置

3D地球を読み込み中...

Starlink 34123について

説明を読み込み中...

次回通過

Passes for default location (London). Set your location on the main map for personalized predictions.

高度履歴

Loading altitude history...

軌道要素

1 63891U 25095B 26104.91307160 -.00001549 00000-0 -46741-4 0 9995
2 63891 42.9990 332.0027 0002831 276.1738 83.8791 15.27583939 53328
Epoch: Apr 14, 2026 • Age: 9 hours

現在のステータス

高度 483.0 km
速度 7.63 km/s
衛星直下点 1.03°N, 152.63°W
打ち上げ日 May 10, 2025
運用期間 0.9 years
タイプ internet

技術仕様

分類 Payload
質量 575.00 kg
乾燥質量 530.00 kg
総質量 575.00 kg
長さ 0.30 m
直径 4.10 m
スパン 29.00 m
形状 Box + pan
製造者 SPXS
バスタイプ Starlink V2MO
フェーズステータス In Orbit
所有者/国 SPXS/US

Most Searched